[[{"header":{"parameterUnit":"m.s-1","parameterCategory":1,"la1":30.2991,"la2":30.254,"lo1":-89.0895,"lo2":-89.0444,"dy":0.0017,"dx":0.0017,"nx":28,"ny":28,"refTime":"2023-08-05T21:00:00:Z","depth":0,"parameterNumber":2,"parameterNumberName":"U-component_of_WINDS"},"data":[0,0,0,0,0,0,0,0,0,0,0,0,0,0,0,0,0,0,0,0,0,0,0,0,0,0,0,0,0,0,0,0,0,0,0,0,0,0,0,0,0,0,0,0,0,0,0,0,0,0,0,0,0,0,0,0,0,0,4.5138,4.5139,0,4.5225,4.5226,4.5227,4.52,4.5198,4.5196,4.5194,4.5286,4.5291,4.5295,0,0,0,0,0,0,0,0,0,0,0,0,0,4.4951,4.4955,4.5138,4.5139,4.514,4.5225,4.5227,4.5228,4.52,4.5198,4.5196,4.5194,4.5285,4.529,4.5295,0,0,0,0,0,0,0,0,0,0,0,0,0,4.5035,4.4956,4.5138,4.5137,4.5138,4.5225,4.5227,4.5228,4.5201,4.5198,4.5195,4.5193,4.5283,4.529,4.5296,4.539,0,0,4.5315,4.5318,0,0,0,0,0,0,0,0,4.503,4.5042,4.5136,4.5137,4.5138,4.5199,4.5194,4.5283,4.5201,4.5177,4.5194,4.5191,4.526,4.5268,4.529,4.5395,4.5399,4.5316,4.5319,4.5322,4.5324,0,0,0,0,0,0,0,4.5024,4.5038,4.5173,4.5137,4.5139,4.5133,4.5142,4.5211,4.5233,4.5179,4.5177,4.5188,4.526,4.5284,4.5292,4.54,4.5315,4.5321,4.5325,4.5327,4.5589,4.5592,0,0,0,0,0,0,4.5018,4.5033,4.517,4.5175,4.5076,4.5139,4.5149,4.5182,4.5232,4.5237,4.519,4.5186,4.5275,4.5285,4.5296,4.5411,4.5322,4.5328,4.5331,4.5586,4.559,4.5593,0,0,0,0,0,0,4.5014,4.503,4.5166,4.5104,4.5121,4.5145,4.5183,4.5185,4.521,4.524,4.5245,4.5211,4.5273,4.5287,4.5367,4.5414,4.5331,4.5336,4.5582,4.5587,4.5591,4.5642,0,0,0,0,0,0,4.5008,4.5029,4.5064,4.5105,4.5124,4.5236,4.5186,4.5189,4.5221,4.5216,4.5261,4.5266,4.5272,4.5358,4.5374,4.5421,4.5341,4.5578,4.5584,4.559,4.5637,4.5648,4.5658,0,0,0,0,0,4.5002,4.5075,4.5066,4.5083,4.5169,4.5239,4.525,4.5255,4.5224,4.5261,4.5281,4.5264,4.5406,4.5367,4.5384,4.5434,4.5575,4.5582,4.5589,4.5632,4.5646,4.5658,0,0,0,0,0,0,4.5039,4.508,4.5071,4.5159,4.5196,4.5234,4.528,4.5269,4.5316,4.531,4.5315,4.5325,4.5408,4.5429,4.5384,4.5529,4.5486,4.5497,4.5513,4.5526,4.5537,4.5531,4.5347,0,0,0,0,0,4.5058,4.511,4.5143,4.5218,4.5237,4.5255,4.5286,4.5287,4.5325,4.534,4.5366,4.5405,4.5458,4.5493,4.5544,4.5639,4.565,4.5682,4.5693,4.5702,4.5712,4.5765,4.5781,4.5617,4.5617,4.5616,0,0,4.5097,4.5125,4.5158,4.5227,4.5255,4.531,4.5268,4.5328,4.537,4.535,4.5428,4.5448,4.5492,4.5581,4.5621,4.5601,4.5759,4.5711,4.5718,4.5723,4.5774,4.579,4.5804,4.5621,4.5621,4.562,0,0,4.5196,4.5222,4.5288,4.5318,4.5361,4.5373,4.5389,4.543,4.5442,4.552,4.5507,4.5557,4.5648,4.5681,4.5709,4.5823,4.581,4.5839,4.5896,4.5948,4.5961,4.5973,4.6015,4.603,4.5848,4.5849,4.5849,0,4.5239,4.5321,4.5324,4.5386,4.5417,4.5401,4.5469,4.5497,4.5556,4.5578,4.5554,4.5669,4.5698,4.5795,4.5823,4.5846,4.5865,4.5834,4.5959,4.597,4.5981,4.6021,4.6037,4.5852,4.5851,4.5851,4.5851,0,4.5373,4.543,4.5478,4.5535,4.5571,4.5636,4.565,4.5687,4.5685,4.57,4.5781,4.5814,4.5872,4.5895,4.5894,4.5993,4.5979,4.5957,4.5914,4.6,4.6038,4.6053,4.5857,4.5855,4.5854,4.5854,0,0,4.5498,4.5556,4.5574,4.56,4.5647,4.5692,4.5757,4.5813,4.5845,4.5886,4.5942,4.602,4.6001,4.6033,4.6035,4.6081,4.6171,4.6054,4.6055,4.6075,4.6284,4.6301,4.6319,4.6163,4.6166,4.6168,4.6281,0,4.5602,4.5715,4.572,4.5823,4.5877,4.5863,4.592,4.5956,4.5972,4.6022,4.604,4.6096,4.6065,4.6084,4.6129,4.615,4.6213,4.6142,4.6216,4.6219,4.6206,4.6339,4.6356,4.6462,4.6296,4.6298,4.63,0,4.5739,4.5784,4.5893,4.5934,4.5957,4.6007,4.606,4.6107,4.6148,4.6157,4.6194,4.619,4.6258,4.6212,4.6307,4.6259,4.6289,4.6305,4.6309,4.6317,4.6265,4.6351,4.6495,4.6511,4.6323,4.6321,4.632,0,4.5821,4.5909,4.5986,4.6009,4.6058,4.6094,4.6117,4.6155,4.6189,4.6236,4.6259,4.6313,4.6343,4.6385,4.6397,4.6362,4.6492,4.6447,4.6503,4.6503,4.6531,4.6529,4.6683,4.6549,4.6549,4.6549,4.6548,0,4.5938,4.6005,4.6024,4.6071,4.6147,4.6153,4.6228,4.6248,4.6283,4.6335,4.6326,4.6376,4.6387,4.6439,4.6449,4.6527,4.654,4.655,4.6552,4.6552,4.6551,4.6572,4.6566,4.6553,4.6552,4.6551,4.655,0,4.6043,4.6058,4.6141,4.6181,4.6193,4.6247,4.6282,4.6328,4.6344,4.641,4.6426,4.645,4.6511,4.6527,4.66,4.6606,4.6699,4.6693,4.6685,4.6685,4.674,4.6735,4.6914,4.6939,4.6788,4.6789,4.679,0,4.6117,4.6168,4.6214,4.6248,4.6272,4.6327,4.6362,4.637,4.6407,4.6459,4.65,4.656,4.6608,4.6707,4.6732,4.6788,4.6785,4.6843,4.6793,4.6791,4.6787,4.6784,4.679,4.6853,4.6855,4.6856,4.6857,0,4.6247,4.6252,4.6302,4.6355,4.6397,4.644,4.648,4.6509,4.6523,4.6565,4.6627,4.6665,4.674,4.68,4.6857,4.6881,4.6873,4.6873,4.6889,4.6889,4.6883,4.6888,4.6712,4.6869,4.6868,4.6867,4.6866,4.6866,4.634,4.6386,4.6425,4.6482,4.6513,4.6552,4.6598,4.6619,4.667,4.6732,4.6734,4.6802,4.6844,4.6919,4.6947,4.7001,4.6984,4.7007,4.7013,4.7019,4.7024,4.6873,4.7012,4.7011,4.7011,4.7011,4.7011,0,4.6471,4.6496,4.6548,4.6605,4.665,4.6637,4.6681,4.672,4.678,4.6819,4.6867,4.6939,4.6998,4.7028,4.7087,4.7125,4.7122,4.714,4.7138,4.7144,4.7036,4.7016,4.7141,4.7141,4.7141,4.7141,4.7141,4.7141,4.6544,4.6622,4.6632,4.6725,4.675,4.6816,4.6843,4.6879,4.6911,4.6992,4.704,4.7059,4.7095,4.7157,4.7211,4.7218,4.7241,4.7261,4.7266,4.7165,4.7151,4.7139,4.7121,4.7265,4.7266,4.737,4.7371,4.7372]},{"header":{"parameterUnit":"m.s-1","parameterCategory":1,"la1":30.2991,"la2":30.254,"lo1":-89.0895,"lo2":-89.0444,"dy":0.0017,"dx":0.0017,"nx":28,"ny":28,"refTime":"2023-08-05T21:00:00:Z","depth":0,"parameterNumber":3,"parameterNumberName":"V-component_of_WINDS"},"data":[0,0,0,0,0,0,0,0,0,0,0,0,0,0,0,0,0,0,0,0,0,0,0,0,0,0,0,0,0,0,0,0,0,0,0,0,0,0,0,0,0,0,0,0,0,0,0,0,0,0,0,0,0,0,0,0,0,0,0.4688,0.4688,0,0.4721,0.4721,0.4721,0.4731,0.4731,0.473,0.473,0.4763,0.4764,0.4765,0,0,0,0,0,0,0,0,0,0,0,0,0,0.4631,0.4632,0.4688,0.4688,0.4689,0.4721,0.4721,0.4721,0.4731,0.4731,0.473,0.473,0.4763,0.4764,0.4765,0,0,0,0,0,0,0,0,0,0,0,0,0,0.4659,0.4633,0.4688,0.4697,0.4698,0.472,0.4721,0.4722,0.4731,0.4731,0.473,0.473,0.4762,0.4764,0.4766,0.478,0,0,0.477,0.4771,0,0,0,0,0,0,0,0,0.4658,0.4661,0.4695,0.4696,0.4698,0.4721,0.4713,0.4741,0.4731,0.4718,0.473,0.473,0.4749,0.4752,0.4759,0.4782,0.4783,0.477,0.4771,0.4772,0.4772,0,0,0,0,0,0,0,0.4656,0.466,0.4701,0.4696,0.4697,0.4699,0.4703,0.4719,0.4735,0.472,0.472,0.4724,0.475,0.4757,0.476,0.4784,0.477,0.4772,0.4773,0.4773,0.4819,0.482,0,0,0,0,0,0,0.4652,0.4658,0.47,0.4702,0.4677,0.47,0.4704,0.4714,0.4735,0.4738,0.4724,0.4724,0.4755,0.4758,0.4761,0.4779,0.4772,0.4773,0.4774,0.4819,0.4819,0.482,0,0,0,0,0,0,0.4651,0.4656,0.4698,0.468,0.4686,0.4702,0.4712,0.4715,0.4722,0.4738,0.4741,0.4729,0.4755,0.4759,0.4775,0.478,0.4774,0.4776,0.4819,0.4819,0.482,0.4816,0,0,0,0,0,0,0.4649,0.4655,0.4662,0.468,0.4687,0.4713,0.4713,0.4716,0.4725,0.4725,0.4743,0.4746,0.4755,0.4773,0.4777,0.4782,0.4777,0.4818,0.4819,0.4819,0.4815,0.4816,0.4816,0,0,0,0,0,0.4647,0.4659,0.4662,0.4667,0.4695,0.4713,0.4717,0.4727,0.4725,0.4731,0.4742,0.4746,0.4779,0.4774,0.4779,0.4785,0.4818,0.4819,0.4819,0.4815,0.4816,0.4816,0,0,0,0,0,0,0.4641,0.4662,0.4665,0.4684,0.4696,0.4715,0.4723,0.4727,0.474,0.474,0.4752,0.4755,0.4771,0.478,0.4774,0.48,0.4798,0.48,0.4794,0.4794,0.4795,0.4792,0.4778,0,0,0,0,0,0.4642,0.4655,0.4673,0.4687,0.4694,0.4707,0.4715,0.4722,0.4735,0.4741,0.4752,0.4765,0.4778,0.4787,0.48,0.4816,0.482,0.4822,0.4823,0.4823,0.4824,0.4833,0.4834,0.4822,0.4822,0.4822,0,0,0.4644,0.4657,0.4665,0.4686,0.4697,0.471,0.4712,0.4725,0.4735,0.4743,0.4759,0.4768,0.4782,0.4799,0.4807,0.4806,0.4828,0.4824,0.4824,0.4825,0.4834,0.4835,0.4836,0.4822,0.4822,0.4822,0,0,0.4654,0.4665,0.4678,0.4689,0.4705,0.4713,0.4716,0.4733,0.474,0.4756,0.4762,0.4773,0.4796,0.4806,0.4814,0.4826,0.483,0.483,0.4832,0.484,0.4841,0.4842,0.4845,0.4847,0.4831,0.4831,0.4831,0,0.4654,0.4674,0.4684,0.4698,0.4707,0.4714,0.4727,0.4736,0.4755,0.4761,0.4761,0.4789,0.4799,0.4817,0.482,0.4827,0.483,0.4828,0.484,0.4841,0.4842,0.4846,0.4847,0.4831,0.4831,0.4831,0.4831,0,0.4673,0.4687,0.4696,0.4714,0.4724,0.4737,0.4748,0.4757,0.4762,0.477,0.4786,0.4799,0.4814,0.4819,0.4824,0.4837,0.4837,0.4838,0.4837,0.4843,0.4846,0.4848,0.483,0.483,0.4831,0.4831,0,0,0.4682,0.4704,0.4707,0.4715,0.4733,0.4743,0.4756,0.4771,0.4778,0.479,0.4801,0.4819,0.482,0.4829,0.4835,0.4842,0.485,0.4842,0.4843,0.4843,0.4864,0.4863,0.4865,0.4852,0.4852,0.4853,0.4863,0,0.4693,0.4717,0.4726,0.4745,0.4757,0.4763,0.4774,0.4785,0.4793,0.4804,0.4812,0.4825,0.4826,0.4831,0.4838,0.4847,0.4854,0.4847,0.4861,0.4862,0.4858,0.4867,0.4866,0.4875,0.4864,0.4865,0.4865,0,0.4711,0.4723,0.4744,0.4758,0.4764,0.4774,0.4787,0.4798,0.481,0.4815,0.4825,0.483,0.4843,0.4841,0.4858,0.4852,0.4859,0.4864,0.4864,0.4866,0.4864,0.4869,0.4878,0.4879,0.4867,0.4867,0.4867,0,0.4714,0.4736,0.4751,0.4757,0.4775,0.4782,0.4789,0.4801,0.4809,0.4821,0.4826,0.4839,0.4846,0.4856,0.4864,0.4862,0.488,0.4879,0.4884,0.4884,0.4888,0.4888,0.4899,0.4892,0.4892,0.4892,0.4892,0,0.4726,0.4738,0.4752,0.4761,0.4774,0.4784,0.4796,0.4804,0.4815,0.4825,0.4831,0.484,0.4851,0.4861,0.4867,0.488,0.4883,0.4887,0.4889,0.4887,0.4886,0.4891,0.4891,0.4893,0.4892,0.4892,0.4892,0,0.4733,0.4742,0.4759,0.4774,0.4778,0.4787,0.4799,0.4808,0.4815,0.4828,0.4831,0.4843,0.4855,0.4865,0.4881,0.4885,0.4898,0.49,0.4894,0.4895,0.4899,0.4899,0.4914,0.4916,0.4908,0.4908,0.4908,0,0.474,0.4749,0.4765,0.4772,0.478,0.4792,0.48,0.4809,0.4817,0.4831,0.4837,0.485,0.4861,0.488,0.4889,0.4901,0.4903,0.4907,0.4905,0.4902,0.4903,0.4902,0.4903,0.4908,0.4908,0.4908,0.4908,0,0.4752,0.4756,0.4767,0.478,0.479,0.48,0.4811,0.4816,0.4827,0.4835,0.4848,0.4856,0.4872,0.4884,0.4897,0.4904,0.4907,0.4909,0.491,0.4908,0.4905,0.4906,0.4895,0.4908,0.4908,0.4908,0.4908,0.4908,0.4759,0.4767,0.4779,0.4791,0.48,0.4809,0.4818,0.4826,0.4837,0.4851,0.4855,0.4868,0.4879,0.4896,0.4903,0.4913,0.4913,0.4915,0.4916,0.4917,0.4916,0.4903,0.4915,0.4915,0.4915,0.4915,0.4915,0,0.477,0.4778,0.4789,0.4804,0.4813,0.4816,0.4827,0.4835,0.4846,0.4856,0.4866,0.488,0.4891,0.4901,0.4913,0.4919,0.492,0.4921,0.4921,0.4922,0.4916,0.4913,0.492,0.492,0.492,0.492,0.492,0.492,0.4777,0.4791,0.4796,0.4814,0.4822,0.4834,0.4841,0.4849,0.4857,0.4872,0.4882,0.4888,0.4898,0.491,0.492,0.4923,0.4927,0.4927,0.493,0.4924,0.4923,0.4923,0.492,0.4928,0.4928,0.4936,0.4936,0.4936]}]]